TimeCDT,TemperatureF,Dew PointF,Humidity,Sea Level PressureIn,VisibilityMPH,Wind Direction,Wind SpeedMPH,Gust SpeedMPH,PrecipitationIn,Events,Conditions,WindDirDegrees,DateUTC
12:14 AM,57.2,50.0,77,29.94,10.0,SE,10.4,-,N/A,,Clear,130,2013-09-24 05:14:00
12:34 AM,57.2,48.2,72,29.93,10.0,SE,10.4,16.1,N/A,,Clear,130,2013-09-24 05:34:00
12:54 AM,55.4,48.2,77,29.94,10.0,SE,10.4,16.1,N/A,,Clear,130,2013-09-24 05:54:00
1:14 AM,55.4,48.2,77,29.95,10.0,SE,3.5,-,N/A,,Clear,140,2013-09-24 06:14:00
1:34 AM,53.6,48.2,82,29.95,10.0,Calm,Calm,-,N/A,,Clear,0,2013-09-24 06:34:00
1:54 AM,53.6,48.2,82,29.95,10.0,Calm,Calm,-,N/A,,Clear,0,2013-09-24 06:54:00
2:14 AM,51.8,46.4,82,29.95,10.0,ESE,4.6,-,N/A,,Clear,120,2013-09-24 07:14:00
2:34 AM,51.8,46.4,82,29.95,10.0,ESE,5.8,-,N/A,,Clear,120,2013-09-24 07:34:00
2:54 AM,51.8,46.4,82,29.94,10.0,ESE,6.9,-,N/A,,Clear,120,2013-09-24 07:54:00
3:14 AM,51.8,48.2,88,29.94,10.0,SE,6.9,-,N/A,,Clear,130,2013-09-24 08:14:00
3:34 AM,51.8,46.4,82,29.94,10.0,ESE,6.9,-,N/A,,Clear,120,2013-09-24 08:34:00
3:54 AM,51.8,46.4,82,29.94,10.0,SE,6.9,-,N/A,,Clear,130,2013-09-24 08:54:00
4:14 AM,51.8,46.4,82,29.93,10.0,SE,8.1,-,N/A,,Clear,130,2013-09-24 09:14:00
4:34 AM,51.8,46.4,82,29.93,10.0,SE,8.1,-,N/A,,Clear,130,2013-09-24 09:34:00
4:54 AM,51.8,46.4,82,29.93,10.0,SE,8.1,-,N/A,,Clear,130,2013-09-24 09:54:00
5:14 AM,51.8,46.4,82,29.93,10.0,SE,8.1,-,N/A,,Clear,130,2013-09-24 10:14:00
5:34 AM,50.0,46.4,87,29.94,10.0,ESE,9.2,-,N/A,,Clear,120,2013-09-24 10:34:00
5:54 AM,50.0,46.4,87,29.94,10.0,ESE,6.9,-,N/A,,Clear,120,2013-09-24 10:54:00
6:14 AM,50.0,46.4,87,29.94,10.0,ESE,5.8,-,N/A,,Clear,110,2013-09-24 11:14:00
6:34 AM,50.0,46.4,87,29.94,10.0,ESE,8.1,-,N/A,,Clear,110,2013-09-24 11:34:00
6:54 AM,50.0,46.4,87,29.94,10.0,ESE,8.1,-,N/A,,Clear,110,2013-09-24 11:54:00
7:14 AM,50.0,46.4,87,29.94,7.0,ESE,8.1,-,N/A,,Clear,110,2013-09-24 12:14:00
7:34 AM,50.0,46.4,87,29.95,7.0,ESE,8.1,-,N/A,,Clear,120,2013-09-24 12:34:00
7:48 AM,51.8,46.4,82,29.95,7.0,ESE,8.1,-,N/A,,Clear,120,2013-09-24 12:48:00
7:55 AM,51.8,46.4,82,29.95,10.0,SE,8.1,-,N/A,,Clear,130,2013-09-24 12:55:00
8:09 AM,53.6,46.4,77,29.95,10.0,ESE,8.1,-,N/A,,Clear,120,2013-09-24 13:09:00
8:34 AM,53.6,46.4,77,29.96,-9999.0,ESE,9.2,-,N/A,,Unknown,120,2013-09-24 13:34:00
8:54 AM,55.4,48.2,77,29.95,10.0,Calm,Calm,-,N/A,,Clear,120,2013-09-24 13:54:00
9:14 AM,57.2,48.2,72,29.96,10.0,ESE,10.4,-,N/A,,Clear,120,2013-09-24 14:14:00
9:34 AM,59.0,48.2,67,29.96,10.0,ESE,11.5,-,N/A,,Clear,120,2013-09-24 14:34:00
9:54 AM,60.8,50.0,68,29.96,10.0,SE,9.2,-,N/A,,Clear,130,2013-09-24 14:54:00
10:14 AM,62.6,50.0,63,29.97,10.0,ESE,6.9,-,N/A,,Clear,120,2013-09-24 15:14:00
10:34 AM,64.4,51.8,64,29.97,10.0,ESE,5.8,-,N/A,,Clear,120,2013-09-24 15:34:00
10:54 AM,66.2,51.8,60,29.97,10.0,East,4.6,-,N/A,,Clear,90,2013-09-24 15:54:00
11:14 AM,66.2,53.6,64,29.96,10.0,East,4.6,-,N/A,,Clear,100,2013-09-24 16:14:00
11:34 AM,69.8,53.6,56,29.96,10.0,East,8.1,-,N/A,,Clear,100,2013-09-24 16:34:00
11:54 AM,69.8,53.6,56,29.95,10.0,East,9.2,-,N/A,,Clear,100,2013-09-24 16:54:00
12:14 PM,69.8,53.6,56,29.94,10.0,East,12.7,-,N/A,,Clear,90,2013-09-24 17:14:00
12:34 PM,73.4,53.6,50,29.94,10.0,ESE,11.5,-,N/A,,Clear,110,2013-09-24 17:34:00
12:54 PM,73.4,53.6,50,29.93,10.0,SE,11.5,18.4,N/A,,Clear,130,2013-09-24 17:54:00
1:14 PM,73.4,51.8,47,29.94,10.0,SE,11.5,-,N/A,,Clear,140,2013-09-24 18:14:00
1:34 PM,73.4,51.8,47,29.94,10.0,ESE,9.2,-,N/A,,Clear,120,2013-09-24 18:34:00
1:54 PM,75.2,50.0,41,29.93,10.0,ESE,9.2,-,N/A,,Clear,110,2013-09-24 18:54:00
2:14 PM,75.2,50.0,41,29.93,10.0,ESE,6.9,-,N/A,,Clear,110,2013-09-24 19:14:00
2:34 PM,75.2,51.8,44,29.93,10.0,ESE,8.1,-,N/A,,Clear,110,2013-09-24 19:34:00
2:54 PM,75.2,48.2,38,29.93,10.0,East,10.4,-,N/A,,Clear,100,2013-09-24 19:54:00
3:14 PM,75.2,48.2,38,29.93,10.0,ESE,6.9,-,N/A,,Clear,120,2013-09-24 20:14:00
3:34 PM,75.2,50.0,41,29.93,10.0,ESE,9.2,-,N/A,,Clear,110,2013-09-24 20:34:00
3:54 PM,75.2,48.2,38,29.93,10.0,ESE,8.1,-,N/A,,Clear,120,2013-09-24 20:54:00
4:14 PM,73.4,48.2,41,29.92,10.0,ESE,9.2,-,N/A,,Clear,120,2013-09-24 21:14:00
4:34 PM,73.4,48.2,41,29.93,10.0,ESE,6.9,-,N/A,,Clear,110,2013-09-24 21:34:00
4:54 PM,73.4,50.0,44,29.93,10.0,ESE,5.8,-,N/A,,Clear,120,2013-09-24 21:54:00
5:14 PM,73.4,48.2,41,29.93,10.0,Calm,Calm,-,N/A,,Clear,0,2013-09-24 22:14:00
5:34 PM,73.4,48.2,41,29.93,10.0,ESE,4.6,-,N/A,,Clear,120,2013-09-24 22:34:00
5:54 PM,71.6,50.0,46,29.93,10.0,ESE,8.1,-,N/A,,Clear,110,2013-09-24 22:54:00
6:14 PM,71.6,51.8,50,29.93,10.0,ESE,4.6,-,N/A,,Clear,110,2013-09-24 23:14:00
6:34 PM,69.8,51.8,53,29.94,10.0,ESE,5.8,-,N/A,,Clear,120,2013-09-24 23:34:00
6:54 PM,66.2,51.8,60,29.94,10.0,ESE,5.8,-,N/A,,Clear,110,2013-09-24 23:54:00
7:14 PM,64.4,51.8,64,29.94,10.0,East,4.6,-,N/A,,Clear,100,2013-09-25 00:14:00
7:34 PM,62.6,51.8,68,29.94,10.0,East,4.6,-,N/A,,Clear,90,2013-09-25 00:34:00
7:54 PM,60.8,51.8,72,29.94,10.0,East,3.5,-,N/A,,Clear,90,2013-09-25 00:54:00
8:14 PM,59.0,51.8,77,29.95,10.0,ESE,5.8,-,N/A,,Clear,110,2013-09-25 01:14:00
8:34 PM,59.0,51.8,77,29.95,10.0,ESE,3.5,-,N/A,,Clear,110,2013-09-25 01:34:00
8:54 PM,60.8,51.8,72,29.95,10.0,ESE,4.6,-,N/A,,Clear,120,2013-09-25 01:54:00
9:14 PM,57.2,51.8,82,29.95,10.0,SE,3.5,-,N/A,,Clear,130,2013-09-25 02:14:00
9:34 PM,57.2,51.8,82,29.95,10.0,SE,4.6,-,N/A,,Clear,130,2013-09-25 02:34:00
9:54 PM,57.2,51.8,82,29.96,10.0,SE,4.6,-,N/A,,Clear,130,2013-09-25 02:54:00
10:14 PM,55.4,50.0,82,29.96,10.0,ESE,5.8,-,N/A,,Clear,120,2013-09-25 03:14:00
10:34 PM,55.4,50.0,82,29.95,10.0,SE,5.8,-,N/A,,Clear,130,2013-09-25 03:34:00
10:54 PM,55.4,50.0,82,29.95,10.0,SE,4.6,-,N/A,,Clear,130,2013-09-25 03:54:00
11:14 PM,55.4,50.0,82,29.95,10.0,SE,4.6,-,N/A,,Clear,130,2013-09-25 04:14:00
11:34 PM,53.6,48.2,82,29.95,10.0,SE,3.5,-,N/A,,Clear,140,2013-09-25 04:34:00
11:54 PM,55.4,50.0,82,29.95,10.0,SE,4.6,-,N/A,,Clear,130,2013-09-25 04:54:00